Time,TemperatureF,DewpointF,PressureIn,WindDirection,WindDirectionDegrees,WindSpeedMPH,WindSpeedGustMPH,Humidity,HourlyPrecipIn,Conditions,Clouds,dailyrainin,SoftwareType,DateUTC
2013-04-18 00:10:00,19.2,13.5,29.63,South,180,6.3,-999.0,78,-99.99,,,0.00,Acu-Link.com,2013-04-18 06:10:00,
2013-04-18 00:26:00,18.9,12.9,29.64,SW,225,6.8,-999.0,77,-99.99,,,0.00,Acu-Link.com,2013-04-18 06:26:00,
2013-04-18 00:56:00,18.7,12.7,29.63,West,270,4.2,-999.0,77,-99.99,,,0.00,Acu-Link.com,2013-04-18 06:56:00,
2013-04-18 01:11:00,18.9,12.9,29.63,SSW,202,7.3,-999.0,77,-99.99,,,0.00,Acu-Link.com,2013-04-18 07:11:00,
2013-04-18 01:27:00,18.9,12.0,29.64,WSW,247,5.3,-999.0,74,-99.99,,,0.00,Acu-Link.com,2013-04-18 07:27:00,
2013-04-18 01:42:00,18.9,11.7,29.63,SW,225,3.2,-999.0,73,-99.99,,,0.00,Acu-Link.com,2013-04-18 07:42:00,
2013-04-18 01:57:00,18.9,12.0,29.64,NW,315,3.7,-999.0,74,-99.99,,,0.00,Acu-Link.com,2013-04-18 07:57:00,
2013-04-18 02:40:00,18.0,11.7,29.64,West,270,4.7,-999.0,76,-99.99,,,0.00,Acu-Link.com,2013-04-18 08:40:00,
2013-04-18 02:55:00,17.8,11.5,29.64,SW,225,3.2,-999.0,76,-99.99,,,0.00,Acu-Link.com,2013-04-18 08:55:00,
2013-04-18 03:11:00,16.5,11.7,29.64,SSW,202,3.2,-999.0,81,-99.99,,,0.00,Acu-Link.com,2013-04-18 09:11:00,
2013-04-18 03:26:00,16.2,11.7,29.64,WSW,247,6.3,-999.0,82,-99.99,,,0.00,Acu-Link.com,2013-04-18 09:26:00,
2013-04-18 03:41:00,15.4,11.2,29.64,SSE,157,5.8,-999.0,83,-99.99,,,0.00,Acu-Link.com,2013-04-18 09:41:00,
2013-04-18 03:56:00,15.1,10.6,29.64,WSW,247,6.3,-999.0,82,-99.99,,,0.00,Acu-Link.com,2013-04-18 09:56:00,
2013-04-18 04:12:00,14.9,10.4,29.65,WSW,247,4.2,-999.0,82,-99.99,,,0.00,Acu-Link.com,2013-04-18 10:12:00,
2013-04-18 04:27:00,14.4,9.9,29.65,NNE,22,2.7,-999.0,82,-99.99,,,0.00,Acu-Link.com,2013-04-18 10:27:00,
2013-04-18 04:42:00,13.5,9.6,29.66,ESE,112,3.2,-999.0,84,-99.99,,,0.00,Acu-Link.com,2013-04-18 10:42:00,
2013-04-18 04:57:00,14.7,9.1,29.66,SSW,202,5.3,-999.0,78,-99.99,,,0.00,Acu-Link.com,2013-04-18 10:57:00,
2013-04-18 05:12:00,13.5,8.8,29.66,SSE,157,2.7,-999.0,81,-99.99,,,0.00,Acu-Link.com,2013-04-18 11:12:00,
2013-04-18 05:28:00,12.4,8.0,29.65,West,270,0.0,-999.0,82,-99.99,,,0.00,Acu-Link.com,2013-04-18 11:28:00,
2013-04-18 05:43:00,11.7,8.8,29.66,SE,135,0.0,-999.0,88,-99.99,,,0.00,Acu-Link.com,2013-04-18 11:43:00,
2013-04-18 05:58:00,12.9,8.5,29.66,WSW,247,2.2,-999.0,82,-99.99,,,0.00,Acu-Link.com,2013-04-18 11:58:00,
2013-04-18 06:13:00,13.6,7.8,29.66,WSW,247,2.2,-999.0,77,-99.99,,,0.00,Acu-Link.com,2013-04-18 12:13:00,
2013-04-18 06:29:00,13.1,7.3,29.67,WNW,292,2.2,-999.0,77,-99.99,,,0.00,Acu-Link.com,2013-04-18 12:29:00,
2013-04-18 06:44:00,13.1,6.7,29.67,WSW,247,1.7,-999.0,75,-99.99,,,0.00,Acu-Link.com,2013-04-18 12:44:00,
2013-04-18 06:59:00,15.4,7.7,29.68,SSW,202,0.0,-999.0,71,-99.99,,,0.00,Acu-Link.com,2013-04-18 12:59:00,
2013-04-18 07:14:00,18.3,9.2,29.69,SSW,202,3.7,-999.0,67,-99.99,,,0.00,Acu-Link.com,2013-04-18 13:14:00,
2013-04-18 07:29:00,22.5,12.5,29.68,South,180,2.7,-999.0,65,-99.99,,,0.00,Acu-Link.com,2013-04-18 13:29:00,
2013-04-18 07:45:00,24.3,12.8,29.70,SW,225,3.7,-999.0,61,-99.99,,,0.00,Acu-Link.com,2013-04-18 13:45:00,
2013-04-18 08:00:00,23.0,12.7,29.70,SSW,202,2.7,-999.0,64,-99.99,,,0.00,Acu-Link.com,2013-04-18 14:00:00,
2013-04-18 08:15:00,21.4,10.8,29.71,West,270,4.2,-999.0,63,-99.99,,,0.00,Acu-Link.com,2013-04-18 14:15:00,
2013-04-18 08:31:00,22.5,11.5,29.70,South,180,2.7,-999.0,62,-99.99,,,0.00,Acu-Link.com,2013-04-18 14:31:00,
2013-04-18 08:46:00,24.3,11.7,29.71,SSW,202,3.7,-999.0,58,-99.99,,,0.00,Acu-Link.com,2013-04-18 14:46:00,
2013-04-18 09:01:00,24.1,11.9,29.71,WSW,247,3.7,-999.0,59,-99.99,,,0.00,Acu-Link.com,2013-04-18 15:01:00,
2013-04-18 09:16:00,23.5,10.9,29.71,South,180,6.8,-999.0,58,-99.99,,,0.00,Acu-Link.com,2013-04-18 15:16:00,
2013-04-18 09:31:00,25.3,11.4,29.71,NNE,22,1.7,-999.0,55,-99.99,,,0.00,Acu-Link.com,2013-04-18 15:31:00,
2013-04-18 09:47:00,29.1,15.0,29.71,SW,225,4.7,-999.0,55,-99.99,,,0.00,Acu-Link.com,2013-04-18 15:47:00,
2013-04-18 10:02:00,27.3,4.5,29.71,ENE,67,4.2,-999.0,37,-99.99,,,0.00,Acu-Link.com,2013-04-18 16:02:00,
2013-04-18 10:17:00,30.0,8.1,29.72,NE,45,6.8,-999.0,39,-99.99,,,0.00,Acu-Link.com,2013-04-18 16:17:00,
2013-04-18 10:32:00,29.7,6.1,29.72,North,0,5.3,-999.0,36,-99.99,,,0.00,Acu-Link.com,2013-04-18 16:32:00,
2013-04-18 10:47:00,31.6,8.9,29.72,SE,135,2.7,-999.0,38,-99.99,,,0.00,Acu-Link.com,2013-04-18 16:47:00,
2013-04-18 11:02:00,28.9,4.7,29.73,NNW,337,10.9,-999.0,35,-99.99,,,0.00,Acu-Link.com,2013-04-18 17:02:00,
2013-04-18 11:17:00,30.9,7.1,29.73,North,0,5.8,-999.0,36,-99.99,,,0.00,Acu-Link.com,2013-04-18 17:17:00,
2013-04-18 11:32:00,32.0,7.5,29.75,NNW,337,7.8,-999.0,35,-99.99,,,0.00,Acu-Link.com,2013-04-18 17:32:00,
2013-04-18 11:48:00,30.6,5.6,29.74,NNW,337,4.2,-999.0,34,-99.99,,,0.00,Acu-Link.com,2013-04-18 17:48:00,
2013-04-18 12:03:00,30.4,4.1,29.74,WNW,292,6.8,-999.0,32,-99.99,,,0.00,Acu-Link.com,2013-04-18 18:03:00,
2013-04-18 12:18:00,32.9,5.6,29.74,NNE,22,9.9,-999.0,31,-99.99,,,0.00,Acu-Link.com,2013-04-18 18:18:00,
2013-04-18 12:33:00,29.7,3.5,29.74,NE,45,9.4,-999.0,32,-99.99,,,0.00,Acu-Link.com,2013-04-18 18:33:00,
2013-04-18 12:48:00,28.6,5.1,29.74,NNW,337,10.9,-999.0,36,-99.99,,,0.00,Acu-Link.com,2013-04-18 18:48:00,
2013-04-18 13:03:00,29.1,5.5,29.74,NNW,337,7.8,-999.0,36,-99.99,,,0.00,Acu-Link.com,2013-04-18 19:03:00,
2013-04-18 13:18:00,32.0,13.1,29.75,East,90,5.8,-999.0,45,-99.99,,,0.00,Acu-Link.com,2013-04-18 19:18:00,
2013-04-18 13:33:00,34.0,8.6,29.75,NNE,22,10.4,-999.0,34,-99.99,,,0.00,Acu-Link.com,2013-04-18 19:33:00,
2013-04-18 13:48:00,31.1,13.3,29.75,North,0,6.8,-999.0,47,-99.99,,,0.00,Acu-Link.com,2013-04-18 19:48:00,
2013-04-18 14:03:00,33.3,9.9,29.75,ENE,67,4.7,-999.0,37,-99.99,,,0.00,Acu-Link.com,2013-04-18 20:03:00,
2013-04-18 14:19:00,34.5,10.3,29.75,North,0,5.8,-999.0,36,-99.99,,,0.00,Acu-Link.com,2013-04-18 20:19:00,
2013-04-18 14:34:00,31.5,8.9,29.76,North,0,5.3,-999.0,38,-99.99,,,0.00,Acu-Link.com,2013-04-18 20:34:00,
2013-04-18 14:49:00,29.1,6.7,29.77,NNE,22,4.7,-999.0,38,-99.99,,,0.00,Acu-Link.com,2013-04-18 20:49:00,
2013-04-18 15:04:00,31.8,8.5,29.77,NNW,337,6.8,-999.0,37,-99.99,,,0.00,Acu-Link.com,2013-04-18 21:04:00,
2013-04-18 15:19:00,29.3,3.1,29.78,North,0,8.9,-999.0,32,-99.99,,,0.00,Acu-Link.com,2013-04-18 21:19:00,
2013-04-18 15:34:00,29.8,5.5,29.78,North,0,6.8,-999.0,35,-99.99,,,0.00,Acu-Link.com,2013-04-18 21:34:00,
2013-04-18 15:49:00,32.0,6.8,29.78,NNE,22,5.8,-999.0,34,-99.99,,,0.00,Acu-Link.com,2013-04-18 21:49:00,
2013-04-18 16:04:00,29.8,4.9,29.79,SSW,202,4.7,-999.0,34,-99.99,,,0.00,Acu-Link.com,2013-04-18 22:04:00,
2013-04-18 16:20:00,32.5,5.3,29.78,WNW,292,6.3,-999.0,31,-99.99,,,0.00,Acu-Link.com,2013-04-18 22:20:00,
2013-04-18 16:35:00,30.2,4.6,29.80,NNE,22,4.7,-999.0,33,-99.99,,,0.00,Acu-Link.com,2013-04-18 22:35:00,
2013-04-18 16:50:00,28.8,7.0,29.80,NNW,337,6.8,-999.0,39,-99.99,,,0.00,Acu-Link.com,2013-04-18 22:50:00,
2013-04-18 17:06:00,28.8,5.3,29.80,SW,225,2.7,-999.0,36,-99.99,,,0.00,Acu-Link.com,2013-04-18 23:06:00,
2013-04-18 17:21:00,29.5,5.3,29.81,West,270,5.8,-999.0,35,-99.99,,,0.00,Acu-Link.com,2013-04-18 23:21:00,
2013-04-18 17:36:00,30.2,6.5,29.82,NE,45,5.8,-999.0,36,-99.99,,,0.00,Acu-Link.com,2013-04-18 23:36:00,
2013-04-18 17:51:00,30.9,5.9,29.83,WNW,292,7.8,-999.0,34,-99.99,,,0.00,Acu-Link.com,2013-04-18 23:51:00,
2013-04-18 18:06:00,31.5,5.7,29.83,WNW,292,3.7,-999.0,33,-99.99,,,0.00,Acu-Link.com,2013-04-19 00:06:00,
2013-04-18 18:21:00,32.0,5.5,29.85,NE,45,7.3,-999.0,32,-99.99,,,0.00,Acu-Link.com,2013-04-19 00:21:00,
2013-04-18 18:36:00,32.0,8.1,29.85,WSW,247,8.9,-999.0,36,-99.99,,,0.00,Acu-Link.com,2013-04-19 00:36:00,
2013-04-18 18:51:00,30.7,11.4,29.86,West,270,7.8,-999.0,44,-99.99,,,0.00,Acu-Link.com,2013-04-19 00:51:00,
2013-04-18 19:06:00,28.0,11.8,29.87,South,180,5.3,-999.0,50,-99.99,,,0.00,Acu-Link.com,2013-04-19 01:06:00,
2013-04-18 19:22:00,26.6,10.0,29.87,West,270,3.2,-999.0,49,-99.99,,,0.00,Acu-Link.com,2013-04-19 01:22:00,
2013-04-18 19:37:00,25.7,9.7,29.89,West,270,5.3,-999.0,50,-99.99,,,0.00,Acu-Link.com,2013-04-19 01:37:00,
2013-04-18 19:52:00,24.3,12.1,29.89,South,180,2.7,-999.0,59,-99.99,,,0.00,Acu-Link.com,2013-04-19 01:52:00,
2013-04-18 20:08:00,23.4,12.0,29.90,ESE,112,3.2,-999.0,61,-99.99,,,0.00,Acu-Link.com,2013-04-19 02:08:00,
2013-04-18 20:23:00,22.1,10.0,29.90,ESE,112,0.0,-999.0,59,-99.99,,,0.00,Acu-Link.com,2013-04-19 02:23:00,
2013-04-18 20:38:00,20.8,7.2,29.91,South,180,3.7,-999.0,55,-99.99,,,0.00,Acu-Link.com,2013-04-19 02:38:00,
2013-04-18 20:53:00,20.1,5.7,29.92,West,270,0.0,-999.0,53,-99.99,,,0.00,Acu-Link.com,2013-04-19 02:53:00,
2013-04-18 21:08:00,18.0,4.6,29.94,SW,225,0.0,-999.0,55,-99.99,,,0.00,Acu-Link.com,2013-04-19 03:08:00,
2013-04-18 21:23:00,19.0,5.9,29.94,North,0,2.7,-999.0,56,-99.99,,,0.00,Acu-Link.com,2013-04-19 03:23:00,
2013-04-18 21:39:00,20.1,6.2,29.94,South,180,2.7,-999.0,54,-99.99,,,0.00,Acu-Link.com,2013-04-19 03:39:00,
2013-04-18 21:54:00,19.4,5.1,29.95,NE,45,0.0,-999.0,53,-99.99,,,0.00,Acu-Link.com,2013-04-19 03:54:00,
2013-04-18 22:10:00,18.3,4.5,29.95,East,90,2.7,-999.0,54,-99.99,,,0.00,Acu-Link.com,2013-04-19 04:10:00,
2013-04-18 22:25:00,18.5,5.5,29.96,NE,45,3.2,-999.0,56,-99.99,,,0.00,Acu-Link.com,2013-04-19 04:25:00,
2013-04-18 22:40:00,17.6,3.8,29.96,NE,45,0.0,-999.0,54,-99.99,,,0.00,Acu-Link.com,2013-04-19 04:40:00,
2013-04-18 22:56:00,16.0,5.7,29.96,NNE,22,0.0,-999.0,63,-99.99,,,0.00,Acu-Link.com,2013-04-19 04:56:00,
2013-04-18 23:11:00,15.3,6.0,29.95,East,90,0.0,-999.0,66,-99.99,,,0.00,Acu-Link.com,2013-04-19 05:11:00,
2013-04-18 23:27:00,15.1,5.1,29.96,North,0,0.0,-999.0,64,-99.99,,,0.00,Acu-Link.com,2013-04-19 05:27:00,
2013-04-18 23:43:00,14.0,4.8,29.96,SE,135,0.0,-999.0,66,-99.99,,,0.00,Acu-Link.com,2013-04-19 05:43:00,
2013-04-18 23:58:00,13.1,5.5,29.96,South,180,1.1,-999.0,71,-99.99,,,0.00,Acu-Link.com,2013-04-19 05:58:00,